Content
SEND FEEDBACK

Daily
Averages
Monthly
Summary
Canada

HAMILTON, ONTARIO


Home > North America > Canada > Ontario
Elevation: 776 feet     Latitude: 43 10N     Longitude: 079 55W

WEATHER
 
SELECT A DAY
Number of Records: 168,129;   Date Range: 1/1/95 - 9/21/14
 
SHARE

PRINT THIS DATA

[ ← Previous Day ]
WEATHER ALMANAC - JANUARY 3, 2013
[ Next Day → ]
[ °C ]   °F
Weather ElementAverageHighLow
Temperature22.8 °F28.4 °F (2:00 pm)15.8 °F (1:00 am)
Dewpoint18.4 °F23 °F (10:00 pm)12 °F (1:00 am)
Humidity82.6 %93 % (10:00 am)71 % (1:00 pm)
Barometer30.08 in30.19 in (1:00 am)29.98 in (2:00 pm)
Wind Speed11.5 mph18.4 mph (12:00 pm)
Wind Gust26.5 mph (2:00 pm)
Weather ElementAverage
Visibility9.6 mi
Wind DirectionWSW (235.9 °)

Weather ElementTotal
Precipitation---
Heating Degree Days42.9 (Base 65)
Averaged from 29 records on January 3, 2013
WEATHER CONDITIONS BREAKOUT
WIND DIRECTION BREAKOUT
WEATHER BY HOUR - JANUARY 3, 2013
[ °C ]   °F
Local TimeTemperatureDewpointHumidityBarometerVisibilityWind DirectionWind SpeedGust SpeedPrecipitationEventsConditions
1:00 AM16.0 °F12.0 °F75 %30.19 in15.0 miWSW (250°)4.6 mphSnowLight Snow Showers
1:00 AM15.8 °F12.2 °F86 %30.19 in15.0 miWSW (250°)4.6 mphSnowLight Snow Showers
2:00 AM15.8 °F12.2 °F86 %30.19 in8.0 miWSW (250°)4.6 mphSnowLight Snow Showers
3:00 AM15.8 °F12.2 °F86 %30.19 in7.0 miWest (280°)5.8 mphSnowLight Snow Showers
4:00 AM17.6 °F12.2 °F79 %30.17 in15.0 miWSW (250°)5.8 mphSnowLight Snow Showers
5:00 AM19.4 °F14.0 °F80 %30.14 in15.0 miWNW (290°)5.8 mphSnowLight Snow Showers
6:00 AM19.4 °F14.0 °F80 %30.14 in15.0 miSSW (200°)4.6 mphSnowLight Snow Showers
7:00 AM19.4 °F15.8 °F86 %30.13 in15.0 miSouth (180°)4.6 mphSnowLight Snow Showers
7:00 AM20.0 °F15.0 °F74 %30.14 in15.0 miSouth (190°)4.6 mphSnowLight Snow Showers
9:00 AM21.2 °F17.6 °F86 %30.11 in4.0 miSouth (190°)8.1 mphSnowLight Snow Showers
9:34 AM21.2 °F17.6 °F86 %30.11 in1.8 miSSW (200°)6.9 mphSnowLight Snow Showers
10:00 AM21.2 °F19.4 °F93 %30.10 in2.0 miSSW (210°)6.9 mphSnowLight Snow Showers
11:00 AM24.8 °F21.2 °F86 %30.08 in4.0 miSW (220°)12.7 mphSnowLight Snow Showers
12:00 PM26.6 °F19.4 °F74 %30.04 in10.0 miSW (230°)18.4 mphSnowLight Snow Showers
1:00 PM26.6 °F21.2 °F80 %30.01 in12.0 miSW (230°)16.1 mphSnowLight Snow Showers
1:00 PM27.0 °F21.0 °F71 %30.01 in12.0 miSW (230°)16.1 mphSnowLight Snow Showers
2:00 PM28.4 °F21.2 °F74 %29.98 in15.0 miWSW (250°)18.4 mph26.5 mphSnowLight Snow Showers
3:00 PM26.6 °F21.2 °F80 %29.99 in15.0 miWSW (240°)15.0 mphSnowLight Snow Showers
4:00 PM26.6 °F21.2 °F80 %30.01 in8.0 miWSW (240°)18.4 mphSnowLight Snow Showers
5:00 PM24.8 °F21.2 °F86 %30.02 in7.0 miWSW (240°)15.0 mph20.7 mphSnowLight Snow Showers
5:47 PM24.8 °F21.2 °F86 %30.04 in8.0 miWSW (250°)16.1 mphSnowLight Snow Showers
6:00 PM24.8 °F21.2 °F86 %30.04 in8.0 miWSW (250°)18.4 mphSnowLight Snow Showers
7:00 PM24.8 °F21.2 °F86 %30.06 in7.0 miWSW (250°)15.0 mph20.7 mphSnowLight Snow
7:00 PM24.0 °F20.0 °F80 %30.06 in7.0 miWSW (250°)15.0 mphSnowLight Snow
8:00 PM24.8 °F21.2 °F86 %30.07 in7.0 miWSW (240°)15.0 mphSnowLight Snow
8:29 PM24.8 °F21.2 °F86 %30.07 in8.0 miWSW (250°)13.8 mphSnowLight Snow
9:00 PM24.8 °F21.2 °F86 %30.06 in8.0 miWSW (250°)15.0 mphSnowLight Snow
10:00 PM26.6 °F23.0 °F86 %30.06 in8.0 miWSW (240°)13.8 mph20.7 mphSnowLight Snow
11:00 PM26.6 °F23.0 °F86 %30.06 in8.0 miWSW (240°)15.0 mphSnowLight Snow
Hourly data recorded from CYHM, located miles away from Hamilton, Ontario







STORIES FROM OUR PARTNERS